Regional Weather Roundup
Issued by NWS State College, PA

Home | Current Version | Previous Version | Graphics & Text | Print | Product List | Glossary Off
Versions: 1 2 3 4 5 6 7 8 9 10 11 12 13 14 15 16 17 18 19 20 21 22 23 24 25 26 27 28 29 30 31 32 33 34 35 36 37 38 39 40 41 42 43 44 45 46 47 48 49 50

000
ASUS41 KCTP 291410
RWRCTP

REGIONAL WEATHER ROUNDUP
NATIONAL WEATHER SERVICE STATE COLLEGE PA
1000 AM EDT SUN MAR 29 2015

Note: "fair" indicates few or no clouds below 12,000 feet with no
significant weather and/or obstructions to visibility.

* = STATION THAT DOES NOT REPORT PRECIPITATION /E.G. RAIN...SNOW...ETC/
    THUNDER OR FOG.

PAZ002>004-007>009-013>016-020>023-029>032-291500-
WESTERN PENNSYLVANIA

CITY           SKY/WX    TMP DP  RH WIND       PRES   REMARKS
ERIE           SUNNY     31  14  49 SW10      30.30F
MEADVILLE      SUNNY     26  15  63 S8        30.27F
FRANKLIN*      SUNNY     25  12  58 SW8       30.31S
NEW CASTLE     FAIR      29  15  55 S5        30.34F
BEAVER COUNTY  SUNNY     28  12  50 SW9       30.33
BUTLER*        SUNNY     27  16  63 W7        30.36R
PITTSBURGH INT SUNNY     27  11  51 SW8       30.35S
PITTSBURGH     SUNNY     26   8  46 SW7       30.35R
INDIANA*       SUNNY     25  14  63 SW6       30.37F
LATROBE        SUNNY     25  14  63 SW12      30.39S WCI  14
WASHINGTON CO* SUNNY     28  14  54 SW5       30.37S
$$

PAZ004>006-010>012-017>019-024>028-033>037-041-042-045-046-049>053-291500-
CENTRAL PENNSYLVANIA

CITY           SKY/WX    TMP DP  RH WIND       PRES   REMARKS
BRADFORD       SUNNY     21  12  68 W6        30.23F WCI  13
DUBOIS         SUNNY     24  13  62 W9        30.27F WCI  14
CLEARFIELD     SUNNY     23  13  65 CALM      30.31S
JOHNSTOWN      SUNNY     21   8  57 NW8       30.26S WCI  11
ALTOONA        SUNNY     26   8  46 NW10      30.33R
STATE COLLEGE  SUNNY     25   9  50 NW6       30.33R
WILLIAMSPORT   SUNNY     28  11  48 W9G18     30.35R
SELINSGROVE    SUNNY     29  11  47 N9G16     30.37R
FT INDIANTOWN  SUNNY     29   7  38 NW7       30.34R
CAPITAL CITY   SUNNY     29   8  41 N9        30.37R
HARRISBURG     SUNNY     30  10  43 W15       30.36R
YORK           SUNNY     31   9  39 NW7       30.36R
$$

PAZ038>040-043-044-047-048-054-055-060>062-067>071-291500-
EASTERN PENNSYLVANIA

CITY           SKY/WX    TMP DP  RH WIND       PRES   REMARKS
SCRANTON       SUNNY     27  11  51 N8        30.29R
MOUNT POCONO   SUNNY     25   7  46 N12G20    30.19R WCI  14
ALLENTOWN      SUNNY     30  10  43 NW12      30.32R
QUAKERTOWN*    SUNNY     28   9  43 NW6       30.31R
READING        SUNNY     31   8  38 N12       30.33S
LANCASTER      SUNNY     29   8  41 NW7       30.34R
COATESVILLE    SUNNY     28   7  40 N12       30.32R
POTTSTOWN      SUNNY     31   8  38 N8        30.34R
BLUE BELL      SUNNY     32  12  43 NW6       30.31S
DOYLESTOWN     SUNNY     30   9  41 NW8       30.30R
WILLOW GROVE   NOT AVBL
NORTH PHILA    SUNNY     34   7  32 N14       30.34R
PHILADELPHIA   SUNNY     32   6  33 NW14      30.34R
$$


USA.gov is the U.S. government's official web portal to all federal, state and local government web resources and services.